Flag for U.S.A. Weather past 2 weeks in St. George, Utah, U.S.A.

61 °F


Feels Like: 61 °F
Forecast: 53 / 82 °F
Wind: 3 mph from Northeast

Location: Saint George

Current Time: Oct 7, 2015 at 12:44:47 AM

Latest Report: Oct 7, 2015 at 12:15 AM

Visibility: 10 mi

Pressure: 30.13 "Hg (27.28 "Hg at 842m altitude)

Humidity: 68%

Dew point: 50 °F

Location of St. GeorgeLocation

Historic Weather in St. George — Graph


St. George temperature yesterday

Maximum temperature yesterday: 68 °F (at 5:55 PM)
Minimum temperature yesterday: 54 °F (at 7:35 AM)
Average temperature yesterday: 60 °F

Past Weeks' High & Low Weather Summary

High100 °F (Sep 24, 5:15 PM)82% (Oct 5, 11:15 PM)30.20 "Hg (Oct 5, 11:15 PM)
Low54 °F (Oct 6, 7:35 AM)10% (Sep 24, 5:35 PM)29.59 "Hg (Oct 3, 5:15 PM)
Average76 °F33%29.95 "Hg
* Reported Sep 21 11:15 PM — Oct 6 11:35 PM, St. George, Weather by CustomWeather, © 2015

Note: Actual official high and low records may vary slightly from our data, if they occured in-between our weather recording intervals... More about our weather records


St. George weather history for previous 24 hours

Time TempWeatherWind HumidityBarometerVisibility
11:35 PM
Tue, Oct 6
61 °FClear.No wind68%30.13 "Hg10 mi
11:15 PM61 °FClear.5 mph72%30.13 "Hg10 mi
10:55 PM61 °FClear.5 mph72%30.13 "Hg10 mi
10:35 PM63 °FClear.No wind64%30.12 "Hg10 mi
10:15 PM63 °FPassing clouds.5 mph68%30.13 "Hg10 mi
9:35 PM63 °FOvercast.3 mph68%30.12 "Hg10 mi
8:55 PM63 °FOvercast.No wind68%30.12 "Hg10 mi
8:35 PM64 °FPassing clouds.No wind60%30.11 "Hg10 mi
8:15 PM66 °FPassing clouds.3 mph49%30.11 "Hg10 mi
7:55 PM66 °FPartly sunny.3 mph52%30.11 "Hg10 mi
7:35 PM66 °FOvercast.No wind49%30.11 "Hg10 mi
7:15 PM66 °FPartly sunny.No wind49%30.11 "Hg10 mi
6:55 PM68 °FPartly sunny.No wind46%30.11 "Hg10 mi
6:35 PM68 °FPassing clouds.No wind46%30.11 "Hg10 mi
6:15 PM68 °FSunny.No wind46%30.11 "Hg10 mi
5:55 PM68 °FSunny.5 mph46%30.11 "Hg10 mi
5:35 PM66 °FSunny.6 mph52%30.11 "Hg10 mi
5:15 PM66 °FSunny.5 mph49%30.11 "Hg10 mi
4:55 PM66 °FSunny.No wind49%30.11 "Hg10 mi
3:15 PM64 °FScattered clouds.9 mph56%30.14 "Hg10 mi
2:55 PM66 °FSunny.15 mph52%30.14 "Hg10 mi
2:35 PM66 °FPassing clouds.10 mph52%30.15 "Hg10 mi
2:15 PM66 °FPartly sunny.10 mph60%30.16 "Hg10 mi
1:55 PM66 °FPassing clouds.9 mph60%30.16 "Hg10 mi
1:35 PM66 °FSunny.8 mph60%30.17 "Hg10 mi
1:15 PM66 °FSunny.7 mph60%30.18 "Hg10 mi
12:55 PM64 °FSunny.5 mph60%30.18 "Hg10 mi
12:35 PM63 °FPassing clouds.No wind64%30.18 "Hg10 mi
12:15 PM63 °FScattered clouds.3 mph64%30.19 "Hg10 mi
11:55 AM61 °FPartly sunny.5 mph68%30.19 "Hg10 mi
11:35 AM61 °FPassing clouds.6 mph68%30.20 "Hg10 mi
11:15 AM61 °FPartly sunny.5 mph72%30.20 "Hg10 mi
10:55 AM59 °FScattered clouds.6 mph77%30.20 "Hg10 mi
10:35 AM59 °FSunny.No wind72%30.20 "Hg10 mi
10:15 AM59 °FSunny.No wind72%30.20 "Hg10 mi
9:55 AM57 °FScattered clouds.6 mph82%30.19 "Hg10 mi
9:35 AM55 °FOvercast.5 mph82%30.19 "Hg10 mi
9:15 AM55 °FPartly sunny.5 mph82%30.19 "Hg10 mi
8:55 AM54 °FSunny.5 mph82%30.18 "Hg10 mi
8:35 AM55 °FScattered clouds.3 mph77%30.17 "Hg10 mi
8:15 AM54 °FOvercast.No wind82%30.16 "Hg10 mi
7:55 AM54 °FPassing clouds.5 mph82%30.15 "Hg10 mi
7:35 AM54 °FClear.3 mph82%30.14 "Hg10 mi
7:15 AM55 °FClear.No wind77%30.13 "Hg10 mi
6:55 AM55 °FClear.No wind77%30.12 "Hg10 mi
6:35 AM55 °FClear.No wind77%30.12 "Hg10 mi
6:15 AM55 °FClear.No wind77%30.11 "Hg10 mi
5:55 AM55 °FClear.No wind77%30.11 "Hg10 mi
5:35 AM55 °FClear.No wind77%30.10 "Hg10 mi
5:15 AM55 °FPassing clouds.No wind77%30.10 "Hg10 mi
4:55 AM55 °FPassing clouds.No wind82%30.10 "Hg10 mi
4:35 AM55 °FClear.3 mph82%30.10 "Hg10 mi
4:15 AM55 °FClear.No wind82%30.10 "Hg10 mi
3:55 AM55 °FClear.No wind82%30.11 "Hg10 mi
3:35 AM55 °FPassing clouds.3 mph82%30.11 "Hg10 mi
3:15 AM55 °FMostly cloudy.5 mph82%30.11 "Hg10 mi
2:55 AM55 °FOvercast.8 mph82%30.11 "Hg10 mi
2:35 AM57 °FOvercast.6 mph77%30.11 "Hg10 mi
2:15 AM57 °FOvercast.3 mph72%30.11 "Hg10 mi
1:55 AM57 °FOvercast.3 mph72%30.11 "Hg10 mi
1:35 AM55 °FMostly cloudy.3 mph82%30.11 "Hg10 mi
1:15 AM55 °FMostly cloudy.3 mph77%30.12 "Hg10 mi
12:55 AM55 °FMostly cloudy.13 mph82%30.11 "Hg10 mi
12:35 AM55 °FMostly cloudy.8 mph77%30.11 "Hg10 mi
12:15 AM55 °FMostly cloudy.8 mph77%30.11 "Hg10 mi
Weather by CustomWeather, © 2015

See weather overviewHow to use our weather pages